[[{"header":{"parameterUnit":"m.s-1","parameterCategory":1,"la1":30.2991,"la2":30.254,"lo1":-89.0895,"lo2":-89.0444,"dy":0.0017,"dx":0.0017,"nx":28,"ny":28,"refTime":"2025-08-17T09:00:00:Z","depth":0,"parameterNumber":2,"parameterNumberName":"U-component_of_WINDS"},"data":[0,0,0,0,0,0,0,0,0,0,0,0,0,0,0,0,0,0,0,0,0,0,0,0,0,0,0,0,0,0,0,0,0,0,0,0,0,0,0,0,0,0,0,0,0,0,0,0,0,0,0,0,0,0,0,0,0,0,0.3441,0.344,0,0.3384,0.3383,0.3382,0.3356,0.3357,0.3357,0.3357,0.3294,0.3292,0.3291,0,0,0,0,0,0,0,0,0,0,0,0,0,0.3523,0.3521,0.3441,0.344,0.3439,0.3384,0.3383,0.3382,0.3356,0.3357,0.3357,0.3357,0.3295,0.3293,0.3291,0,0,0,0,0,0,0,0,0,0,0,0,0,0.3478,0.3521,0.3441,0.342,0.3417,0.3384,0.3383,0.3382,0.3356,0.3357,0.3357,0.3357,0.3295,0.3293,0.329,0.3272,0,0,0.3282,0.3281,0,0,0,0,0,0,0,0,0.3481,0.3475,0.3423,0.3421,0.3418,0.3377,0.3389,0.3345,0.3356,0.3379,0.3357,0.3357,0.3321,0.3317,0.3306,0.3269,0.3267,0.3282,0.3281,0.328,0.3279,0,0,0,0,0,0,0,0.3484,0.3478,0.3418,0.3423,0.342,0.3412,0.3406,0.3381,0.335,0.3377,0.3375,0.3369,0.332,0.3308,0.3304,0.3266,0.3282,0.328,0.3278,0.3277,0.3212,0.3212,0,0,0,0,0,0,0.3491,0.348,0.342,0.3416,0.3451,0.341,0.3403,0.339,0.3351,0.3345,0.3369,0.3368,0.3313,0.3307,0.3302,0.3278,0.328,0.3277,0.3276,0.3212,0.3212,0.3211,0,0,0,0,0,0,0.3493,0.3486,0.3422,0.3448,0.3439,0.3409,0.3394,0.3389,0.3377,0.3345,0.3339,0.3363,0.3313,0.3305,0.328,0.3276,0.3276,0.3274,0.3212,0.3212,0.3212,0.3231,0,0,0,0,0,0,0.3496,0.3487,0.3481,0.3448,0.3438,0.3403,0.3394,0.3388,0.3374,0.3372,0.3337,0.3331,0.3312,0.3284,0.3278,0.3272,0.3272,0.3212,0.3212,0.3212,0.323,0.3231,0.3232,0,0,0,0,0,0.3499,0.3487,0.348,0.3473,0.343,0.3402,0.3397,0.3376,0.3373,0.3366,0.3345,0.3333,0.3277,0.3282,0.3274,0.3268,0.3213,0.3212,0.3212,0.323,0.3231,0.3232,0,0,0,0,0,0,0.3519,0.3483,0.3475,0.3453,0.3431,0.3398,0.3389,0.3377,0.3355,0.3354,0.3327,0.332,0.3297,0.328,0.3285,0.3248,0.3244,0.3242,0.326,0.3261,0.3262,0.3266,0.3269,0,0,0,0,0,0.3521,0.3503,0.3472,0.3456,0.3445,0.3419,0.3406,0.3392,0.3368,0.3358,0.3335,0.3311,0.3288,0.3274,0.3251,0.3228,0.3219,0.322,0.322,0.3221,0.3219,0.3206,0.3205,0.321,0.321,0.321,0,0,0.3524,0.3503,0.3493,0.3459,0.3441,0.3422,0.3411,0.3392,0.3377,0.3355,0.333,0.3312,0.3283,0.3259,0.3248,0.3244,0.3216,0.3221,0.3221,0.3219,0.3205,0.3205,0.3204,0.321,0.321,0.321,0,0,0.3522,0.3504,0.3488,0.347,0.3443,0.3426,0.3422,0.3391,0.3379,0.3354,0.3337,0.3318,0.328,0.326,0.3245,0.3235,0.3222,0.3228,0.3232,0.3219,0.3218,0.3218,0.3214,0.3213,0.3227,0.3227,0.3227,0,0.3529,0.3501,0.3481,0.3463,0.3448,0.3429,0.3412,0.3396,0.3362,0.3351,0.3349,0.33,0.3279,0.325,0.3248,0.3237,0.3231,0.3232,0.322,0.3219,0.3219,0.3215,0.3213,0.3228,0.3228,0.3227,0.3227,0,0.3512,0.3493,0.3483,0.3453,0.3437,0.342,0.3396,0.3382,0.3369,0.3352,0.3326,0.3301,0.3273,0.3265,0.3252,0.3234,0.3233,0.3226,0.322,0.3219,0.3215,0.3213,0.3229,0.3229,0.3228,0.3228,0,0,0.3519,0.3479,0.3476,0.3462,0.343,0.3415,0.3396,0.337,0.3358,0.3336,0.3319,0.3287,0.328,0.3263,0.3247,0.3236,0.3229,0.323,0.3229,0.323,0.3208,0.3213,0.3212,0.3221,0.3221,0.3221,0.321,0,0.3512,0.3479,0.3461,0.3435,0.3417,0.3399,0.3382,0.3361,0.3344,0.3325,0.3306,0.3284,0.3277,0.3266,0.3254,0.3233,0.3224,0.3233,0.3204,0.3203,0.3212,0.3209,0.3215,0.3206,0.3208,0.3208,0.3208,0,0.3498,0.3478,0.3451,0.3423,0.3414,0.34,0.3375,0.3357,0.3332,0.332,0.3302,0.3287,0.3265,0.3262,0.3231,0.3238,0.3225,0.3213,0.3212,0.3207,0.3205,0.3205,0.3203,0.3201,0.3205,0.3205,0.3205,0,0.3506,0.3472,0.3451,0.344,0.3406,0.3396,0.3381,0.3357,0.3342,0.3319,0.331,0.3284,0.327,0.325,0.3228,0.3228,0.3199,0.3195,0.3188,0.3189,0.3182,0.3183,0.3178,0.3175,0.3175,0.3175,0.3175,0,0.35,0.3484,0.3454,0.3442,0.3423,0.3402,0.3383,0.3367,0.3345,0.3328,0.331,0.3294,0.3266,0.3246,0.3229,0.3206,0.3199,0.3189,0.3184,0.319,0.3191,0.318,0.318,0.3174,0.3175,0.3175,0.3175,0,0.3505,0.3485,0.3461,0.3432,0.3424,0.3411,0.3385,0.3371,0.3354,0.3333,0.3326,0.3299,0.3275,0.3251,0.3218,0.3206,0.3183,0.3177,0.3192,0.3189,0.3184,0.3185,0.3171,0.3168,0.3168,0.3168,0.3168,0,0.3502,0.3489,0.3459,0.3447,0.3433,0.3414,0.3399,0.3378,0.3363,0.3334,0.3324,0.3298,0.3277,0.3239,0.3215,0.3189,0.3182,0.318,0.3178,0.3185,0.3182,0.3183,0.3181,0.318,0.318,0.318,0.318,0,0.3498,0.3489,0.347,0.3447,0.3431,0.3412,0.3392,0.3382,0.3356,0.3341,0.3317,0.3301,0.3268,0.3242,0.3214,0.3197,0.3184,0.3181,0.3178,0.3184,0.3193,0.3187,0.3193,0.3181,0.3181,0.3181,0.3181,0.3181,0.3498,0.3487,0.3464,0.3443,0.3426,0.3408,0.3394,0.3376,0.3356,0.3328,0.3316,0.3292,0.3266,0.3228,0.3211,0.3191,0.3187,0.3183,0.3182,0.3181,0.3182,0.3197,0.3185,0.3185,0.3185,0.3185,0.3185,0,0.3494,0.3478,0.3459,0.3433,0.3416,0.3407,0.3385,0.3371,0.335,0.3329,0.3309,0.3281,0.3256,0.3231,0.3205,0.3193,0.3187,0.3187,0.3187,0.3184,0.3187,0.3192,0.3193,0.3193,0.3193,0.3193,0.3193,0.3193,0.3489,0.3469,0.3457,0.3428,0.3412,0.3389,0.3377,0.336,0.3343,0.3313,0.3293,0.3278,0.3254,0.3226,0.3203,0.3196,0.3187,0.3189,0.318,0.3184,0.3183,0.3183,0.3187,0.3188,0.3188,0.3179,0.3179,0.3179]},{"header":{"parameterUnit":"m.s-1","parameterCategory":1,"la1":30.2991,"la2":30.254,"lo1":-89.0895,"lo2":-89.0444,"dy":0.0017,"dx":0.0017,"nx":28,"ny":28,"refTime":"2025-08-17T09:00:00:Z","depth":0,"parameterNumber":3,"parameterNumberName":"V-component_of_WINDS"},"data":[0,0,0,0,0,0,0,0,0,0,0,0,0,0,0,0,0,0,0,0,0,0,0,0,0,0,0,0,0,0,0,0,0,0,0,0,0,0,0,0,0,0,0,0,0,0,0,0,0,0,0,0,0,0,0,0,0,0,-2.3315,-2.3316,0,-2.3396,-2.3397,-2.3397,-2.3419,-2.3419,-2.3418,-2.3418,-2.35,-2.3502,-2.3505,0,0,0,0,0,0,0,0,0,0,0,0,0,-2.318,-2.3183,-2.3315,-2.3316,-2.3317,-2.3395,-2.3397,-2.3398,-2.3419,-2.3419,-2.3418,-2.3418,-2.3499,-2.3502,-2.3505,0,0,0,0,0,0,0,0,0,0,0,0,0,-2.3248,-2.3183,-2.3315,-2.3337,-2.334,-2.3395,-2.3397,-2.3398,-2.342,-2.3419,-2.3418,-2.3418,-2.3498,-2.3502,-2.3506,-2.3544,0,0,-2.3518,-2.3519,0,0,0,0,0,0,0,0,-2.3244,-2.3252,-2.3333,-2.3336,-2.3339,-2.3397,-2.3379,-2.3447,-2.342,-2.3389,-2.3418,-2.3417,-2.3466,-2.3472,-2.3489,-2.3548,-2.3551,-2.3518,-2.352,-2.3522,-2.3523,0,0,0,0,0,0,0,-2.3239,-2.3249,-2.3347,-2.3334,-2.3338,-2.3344,-2.3352,-2.3392,-2.3431,-2.3392,-2.3394,-2.3403,-2.3468,-2.3485,-2.3491,-2.3552,-2.3518,-2.3521,-2.3524,-2.3525,-2.3649,-2.365,0,0,0,0,0,0,-2.323,-2.3245,-2.3344,-2.3349,-2.3289,-2.3347,-2.3356,-2.3379,-2.343,-2.3437,-2.3404,-2.3404,-2.3479,-2.3487,-2.3494,-2.3545,-2.3522,-2.3526,-2.3528,-2.3649,-2.365,-2.3651,0,0,0,0,0,0,-2.3227,-2.3239,-2.3341,-2.3298,-2.3311,-2.335,-2.3375,-2.3381,-2.3399,-2.3439,-2.3446,-2.3415,-2.3479,-2.3489,-2.3532,-2.3548,-2.3527,-2.3531,-2.3647,-2.3649,-2.365,-2.3644,0,0,0,0,0,0,-2.3223,-2.3238,-2.3252,-2.3298,-2.3313,-2.3377,-2.3376,-2.3383,-2.3406,-2.3407,-2.3451,-2.3458,-2.3479,-2.3526,-2.3536,-2.3553,-2.3534,-2.3646,-2.3648,-2.365,-2.3643,-2.3646,-2.3647,0,0,0,0,0,-2.3219,-2.3247,-2.3253,-2.3265,-2.3332,-2.3378,-2.3387,-2.3411,-2.3407,-2.3422,-2.3448,-2.3457,-2.3544,-2.353,-2.3542,-2.356,-2.3645,-2.3648,-2.365,-2.3643,-2.3645,-2.3647,0,0,0,0,0,0,-2.3201,-2.3253,-2.3261,-2.3304,-2.3337,-2.3382,-2.3402,-2.3412,-2.3446,-2.3446,-2.3473,-2.3483,-2.3525,-2.3547,-2.353,-2.3601,-2.3595,-2.3599,-2.3586,-2.3589,-2.359,-2.3585,-2.3537,0,0,0,0,0,-2.3202,-2.3235,-2.3279,-2.3313,-2.3329,-2.3363,-2.3383,-2.3399,-2.3434,-2.3447,-2.3477,-2.351,-2.3545,-2.3568,-2.3602,-2.3646,-2.3658,-2.3665,-2.3667,-2.3668,-2.3672,-2.37,-2.3704,-2.3658,-2.3658,-2.3658,0,0,-2.3205,-2.3238,-2.3256,-2.331,-2.3337,-2.3371,-2.3374,-2.3409,-2.3435,-2.3452,-2.3496,-2.3519,-2.3558,-2.3603,-2.3624,-2.3622,-2.3687,-2.3671,-2.3671,-2.3675,-2.3702,-2.3707,-2.371,-2.3659,-2.3659,-2.3659,0,0,-2.3228,-2.3255,-2.3288,-2.3316,-2.3357,-2.338,-2.3388,-2.3432,-2.3448,-2.3492,-2.3507,-2.3538,-2.3598,-2.3626,-2.3648,-2.3684,-2.3694,-2.3694,-2.3705,-2.3732,-2.3735,-2.3739,-2.3754,-2.3759,-2.3698,-2.3698,-2.3698,0,-2.3226,-2.3278,-2.3303,-2.3339,-2.3363,-2.3382,-2.3416,-2.3442,-2.3492,-2.3508,-2.3505,-2.3583,-2.361,-2.3663,-2.3672,-2.3688,-2.37,-2.369,-2.3733,-2.3736,-2.374,-2.3755,-2.376,-2.3698,-2.3698,-2.3698,-2.3698,0,-2.3275,-2.3311,-2.3333,-2.3383,-2.3409,-2.3443,-2.3475,-2.3499,-2.3512,-2.3536,-2.3582,-2.3616,-2.3659,-2.3672,-2.3685,-2.3728,-2.3725,-2.3727,-2.3722,-2.3744,-2.3759,-2.3764,-2.3698,-2.3698,-2.3698,-2.3698,0,0,-2.3289,-2.3354,-2.3361,-2.3385,-2.3433,-2.3462,-2.3498,-2.3541,-2.3562,-2.3596,-2.3629,-2.368,-2.3683,-2.3708,-2.3724,-2.3747,-2.3777,-2.3747,-2.3748,-2.3753,-2.3829,-2.3829,-2.3835,-2.3784,-2.3785,-2.3786,-2.3827,0,-2.3319,-2.3385,-2.341,-2.3464,-2.3499,-2.3518,-2.355,-2.3584,-2.3606,-2.364,-2.3665,-2.3702,-2.3701,-2.3717,-2.3741,-2.3769,-2.3793,-2.3766,-2.3815,-2.3817,-2.3807,-2.3842,-2.3841,-2.3878,-2.3832,-2.3833,-2.3834,0,-2.3363,-2.34,-2.3458,-2.3505,-2.352,-2.3548,-2.3591,-2.3622,-2.3661,-2.3677,-2.3706,-2.3722,-2.3762,-2.3753,-2.3809,-2.379,-2.3812,-2.3829,-2.3831,-2.3838,-2.3828,-2.3852,-2.3891,-2.3897,-2.3843,-2.3842,-2.3841,0,-2.337,-2.3434,-2.3478,-2.3497,-2.3552,-2.3572,-2.3595,-2.3634,-2.3659,-2.3696,-2.3713,-2.3754,-2.3777,-2.3809,-2.3836,-2.3827,-2.3891,-2.3884,-2.3906,-2.3905,-2.3919,-2.3918,-2.3964,-2.393,-2.393,-2.393,-2.393,0,-2.3402,-2.3437,-2.3482,-2.3509,-2.355,-2.3578,-2.3618,-2.3643,-2.3677,-2.371,-2.3729,-2.3759,-2.3792,-2.3827,-2.3849,-2.3894,-2.3903,-2.3918,-2.3923,-2.3917,-2.3916,-2.3933,-2.3932,-2.3931,-2.3931,-2.3931,-2.393,0,-2.3417,-2.3447,-2.3497,-2.3546,-2.3559,-2.3587,-2.3629,-2.3656,-2.3681,-2.3723,-2.3734,-2.3772,-2.3815,-2.3845,-2.3899,-2.3914,-2.3963,-2.3967,-2.395,-2.3953,-2.3975,-2.3973,-2.4034,-2.4045,-2.4002,-2.4002,-2.4003,0,-2.3436,-2.3464,-2.3516,-2.354,-2.3564,-2.3602,-2.3629,-2.3658,-2.3685,-2.3734,-2.3756,-2.38,-2.3837,-2.3905,-2.3938,-2.398,-2.3987,-2.4005,-2.3993,-2.3987,-2.399,-2.3989,-2.3993,-2.4007,-2.4008,-2.4008,-2.4008,0,-2.3468,-2.3482,-2.352,-2.3564,-2.3595,-2.3631,-2.3667,-2.3685,-2.3722,-2.3751,-2.3796,-2.3825,-2.3882,-2.3926,-2.3972,-2.3997,-2.401,-2.4012,-2.402,-2.4015,-2.4005,-2.4013,-2.3958,-2.401,-2.401,-2.401,-2.401,-2.401,-2.3486,-2.3513,-2.3556,-2.3598,-2.3628,-2.3662,-2.3692,-2.3721,-2.3758,-2.3808,-2.3823,-2.387,-2.3911,-2.3974,-2.4,-2.4038,-2.4037,-2.4047,-2.405,-2.4053,-2.4054,-2.3997,-2.4046,-2.4046,-2.4046,-2.4046,-2.4046,0,-2.3521,-2.355,-2.3588,-2.3639,-2.3673,-2.3682,-2.3723,-2.3751,-2.3792,-2.3829,-2.3866,-2.3919,-2.3963,-2.4,-2.4046,-2.4069,-2.4076,-2.408,-2.408,-2.4086,-2.4051,-2.4041,-2.4074,-2.4074,-2.4074,-2.4074,-2.4074,-2.4074,-2.3543,-2.359,-2.361,-2.3673,-2.3702,-2.3749,-2.3772,-2.3804,-2.3834,-2.3893,-2.393,-2.3954,-2.3992,-2.4041,-2.4082,-2.4092,-2.4109,-2.4112,-2.4124,-2.4091,-2.4088,-2.4085,-2.4076,-2.4115,-2.4115,-2.4156,-2.4156,-2.4156]}]]